Location: Bottom School (historical)
(37.9078°N, 89.3593°W)
Time: 09:16:07
(UTC+00:00)

Cosmos 1570 Rocket - Pass Details

Date: 06 July 2022
Orbit: 762 x 788 km, 74.1° (Epoch: 14 August)

Event Time Altitude Azimuth Distance (km) Brightness Sun altitude
Exits shadow 08:18:36 47° 237° (WSW) 1,009 4.2 -21.5°
Maximum altitude 08:19:52 61° 290° (WNW) 864 4.1 -21.3°
Drops below altitude 10° 08:25:04 10° 11° (N) 2,316 7.4 -20.8°
Sets 08:27:30 0° 15° (NNE) 3,250 8.5 -20.5°
